Flag Weather past 2 weeks in Londonderry, Northern Ireland, United Kingdom

Now
63 °F

Partly sunny.


Feels Like: 63 °F
Forecast: N/A
Wind: 9 mph from South

Location: Eglinton / Londonderry

Current Time: Oct 30, 2014 at 5:47:51 PM

Latest Report: Oct 30, 2014 at 4:20 PM


Visibility: N/A

Pressure: 29.74 "Hg

Humidity: 83%

Dew point: 57 °F

Location of LondonderryLocation

Historic Weather in Londonderry — Graph

°F

Londonderry temperature yesterday

Maximum temperature yesterday: 54 °F (at 2:20 PM)
Minimum temperature yesterday: 37 °F (at 5:50 AM)
Average temperature yesterday: 45 °F

Past Weeks' High & Low Weather Summary

 TemperatureHumidityPressure
High64 °F (Oct 18, 12:20 PM)94% (Oct 16, 7:50 AM)30.09 "Hg (Oct 16, 7:50 AM)
Low37 °F (Oct 29, 5:50 AM)58% (Oct 21, 2:50 PM)29.27 "Hg (Oct 18, 5:50 AM)
Average55 °F83%29.67 "Hg
* Reported Oct 16 7:50 AM — Oct 30 4:20 PM, Londonderry, Weather by CustomWeather, © 2014

Note: Actual official high and low records may vary slightly from our data, if they occured in-between our weather recording intervals... More about our weather records

Advertising

Londonderry weather history for previous 24 hours

 ConditionsComfort  
Time TempWeatherWind HumidityBarometerVisibility
4:20 PM
Oct 30
63 °FPartly sunny.9 mph83%29.74 "HgN/A
3:50 PM63 °FPartly sunny.7 mph83%29.74 "HgN/A
3:20 PM63 °FBroken clouds.7 mph83%29.77 "HgN/A
2:50 PM61 °FBroken clouds.8 mph88%29.77 "HgN/A
2:20 PM61 °FBroken clouds.5 mph88%29.77 "Hg4 mi
1:50 PM63 °FDrizzle. Broken clouds.9 mph83%29.77 "Hg4 mi
1:20 PM63 °FPartly sunny.7 mph83%29.77 "HgN/A
12:50 PM63 °FPartly sunny.12 mph77%29.77 "HgN/A
12:20 PM63 °FPartly sunny.10 mph83%29.77 "HgN/A
11:50 AM63 °FPartly sunny.7 mph83%29.77 "HgN/A
11:20 AM63 °FPartly sunny.6 mph83%29.77 "HgN/A
10:50 AM61 °FPartly sunny.3 mph88%29.77 "HgN/A
10:20 AM61 °FPartly sunny.5 mph83%29.77 "HgN/A
9:50 AM61 °FPartly sunny.7 mph88%29.80 "HgN/A
9:20 AM61 °FPartly sunny.8 mph83%29.77 "HgN/A
8:50 AM59 °FPartly sunny.9 mph88%29.77 "HgN/A
8:20 AM59 °FPartly sunny.7 mph88%29.77 "HgN/A
7:50 AM59 °FPartly sunny.5 mph88%29.77 "HgN/A
7:20 AM59 °FMostly cloudy.6 mph88%29.77 "HgN/A
6:50 AM57 °FMostly cloudy.6 mph94%29.77 "HgN/A
6:20 AM57 °FOvercast.10 mph94%29.77 "HgN/A
5:50 AM57 °FOvercast.7 mph94%29.77 "HgN/A
Weather by CustomWeather, © 2014

See weather overviewHow to use our weather pages